Regional Weather Roundup
Issued by NWS Goodland, KS

Home | Current Version | Previous Version | Graphics & Text | Print | Product List | Glossary Off
Versions: 1 2 3 4 5 6 7 8 9 10 11 12 13 14 15 16 17 18 19 20 21 22 23 24 25 26 27 28 29 30 31 32 33 34 35 36 37 38 39 40 41 42 43 44 45 46 47 48 49 50

000
ASUS43 KGLD 190059
RWRGLD

GOODLAND FORECAST AREA HOURLY WEATHER ROUNDUP
NATIONAL WEATHER SERVICE GOODLAND KS
600 PM MST WED JAN 18 2017

...OFFICIAL OBSERVATIONS...

CITY           SKY/WX    TMP DP  RH WIND       PRES   REMARKS
GOODLAND KS    CLOUDY    39  34  82 S12       29.78F
HILL CITY KS   CLEAR     40  39  97 CALM      29.83S
IMPERIAL NEB   CLEAR     35  29  78 S6        29.77F
MCCOOK NEB     CLEAR     39  35  86 S6        29.80F
AKRON CO       CLOUDY    36  21  54 S9        29.75F
BURLINGTON CO  CLOUDY    35  32  88 SW8       29.78F
LIMON CO       CLOUDY    24  19  81 CALM      29.77F
$$

...UNOFFICIAL OBSERVATIONS...

CITY           SKY/WX    TMP DP  RH WIND       PRES   REMARKS
LENORA KS        N/A     39  32  76 CALM        N/A
SHARON SPRINGS   N/A     37  33  86 CALM        N/A
TRENTON NEB      N/A     35  32  89 CALM        N/A
KIT CARSON CO    N/A     34  31  88 CALM        N/A
YUMA CO        FAIR      28  23  80 SW6       29.76F
$$




USA.gov is the U.S. government's official web portal to all federal, state and local government web resources and services.